| time (UTC) | temp C | wind direction | speed KPH | gust KPH | rain 1hr cm | rain 24hr cm | rain mn cm | humidity % | barometer mb |
| 20260510190037 | 19 | 7 | 11.3 | 20.9 | 0.00 | 0.03 | 0.03 | 41 | 1017.1 |
| 20260510184531 | 19 | 31 | 9.7 | 17.7 | 0.00 | 0.03 | 0.03 | 41 | 1017.1 |
| 20260510183014 | 19 | 353 | 3.2 | 19.3 | 0.00 | 0.03 | 0.03 | 42 | 1017.0 |
| 20260510181557 | 19 | 4 | 8.0 | 20.9 | 0.00 | 0.03 | 0.03 | 46 | 1016.8 |
| 20260510180045 | 18 | 41 | 9.7 | 25.7 | 0.00 | 0.03 | 0.03 | 43 | 1016.8 |
| 20260510174526 | 18 | 333 | 9.7 | 20.9 | 0.00 | 0.03 | 0.03 | 43 | 1016.9 |
| 20260510173010 | 18 | 67 | 8.0 | 24.1 | 0.00 | 0.03 | 0.03 | 44 | 1016.8 |
| 20260510171556 | 18 | 13 | 12.9 | 20.9 | 0.00 | 0.03 | 0.03 | 45 | 1016.9 |
| 20260510170038 | 18 | 3 | 11.3 | 22.5 | 0.00 | 0.03 | 0.03 | 45 | 1016.9 |
| 20260510164522 | 18 | 32 | 17.7 | 25.7 | 0.00 | 0.03 | 0.03 | 44 | 1016.9 |
| 20260510163003 | 18 | 44 | 12.9 | 20.9 | 0.00 | 0.03 | 0.03 | 47 | 1016.7 |
| 20260510161551 | 18 | 8 | 11.3 | 27.4 | 0.00 | 0.03 | 0.03 | 48 | 1016.8 |
| 20260510160036 | 18 | 15 | 8.0 | 20.9 | 0.00 | 0.03 | 0.03 | 49 | 1017.0 |
| 20260510154518 | 17 | 352 | 12.9 | 19.3 | 0.00 | 0.03 | 0.03 | 46 | 1017.1 |
| 20260510153003 | 17 | 52 | 11.3 | 19.3 | 0.00 | 0.03 | 0.03 | 49 | 1017.0 |
| 20260510151546 | 17 | 35 | 12.9 | 22.5 | 0.00 | 0.03 | 0.03 | 53 | 1017.0 |
| 20260510150030 | 17 | 335 | 11.3 | 20.9 | 0.00 | 0.03 | 0.03 | 54 | 1016.9 |
| 20260510144521 | 16 | 39 | 8.0 | 19.3 | 0.00 | 0.03 | 0.03 | 58 | 1016.7 |
| 20260510143056 | 16 | 65 | 9.7 | 20.9 | 0.00 | 0.03 | 0.03 | 58 | 1016.6 |
| 20260510141539 | 16 | 56 | 11.3 | 22.5 | 0.00 | 0.03 | 0.03 | 60 | 1016.2 |
| 20260510140022 | 16 | 69 | 8.0 | 17.7 | 0.00 | 0.03 | 0.03 | 64 | 1015.7 |
| 20260510134507 | 15 | 20 | 11.3 | 19.3 | 0.00 | 0.03 | 0.03 | 66 | 1015.6 |
| 20260510133052 | 15 | 53 | 9.7 | 17.7 | 0.00 | 0.03 | 0.03 | 69 | 1015.4 |
| 20260510131539 | 14 | 73 | 9.7 | 19.3 | 0.00 | 0.03 | 0.03 | 74 | 1015.3 |
| 20260510130020 | 13 | 38 | 8.0 | 16.1 | 0.00 | 0.03 | 0.03 | 78 | 1015.1 |
| 20260510124505 | 13 | 19 | 6.4 | 12.9 | 0.00 | 0.03 | 0.03 | 80 | 1015.2 |
| 20260510123053 | 13 | 355 | 4.8 | 17.7 | 0.00 | 0.03 | 0.03 | 81 | 1015.0 |
| 20260510121536 | 13 | 352 | 4.8 | 12.9 | 0.00 | 0.03 | 0.03 | 84 | 1014.6 |
| 20260510120022 | 13 | 37 | 6.4 | 12.9 | 0.00 | 0.03 | 0.03 | 86 | 1014.6 |
| 20260510114501 | 13 | 359 | 4.8 | 14.5 | 0.00 | 0.03 | 0.03 | 88 | 1014.2 |
| 20260510113048 | 14 | 8 | 3.2 | 9.7 | 0.00 | 0.03 | 0.03 | 91 | 1014.1 |
| 20260510111531 | 14 | 4 | 3.2 | 8.0 | 0.00 | 0.03 | 0.03 | 92 | 1013.7 |
| 20260510110017 | 14 | 33 | 0.0 | 4.8 | 0.03 | 0.03 | 0.03 | 93 | 1013.1 |
| 20260510104602 | 15 | 352 | 0.0 | 8.0 | 0.03 | 0.03 | 0.03 | 93 | 1012.9 |
| 20260510103037 | 15 | 17 | 1.6 | 6.4 | 0.03 | 0.03 | 0.03 | 92 | 1012.7 |
| 20260510101517 | 15 | 343 | 3.2 | 8.0 | 0.03 | 0.03 | 0.03 | 91 | 1012.2 |
| 20260510100006 | 15 | 64 | 8.0 | 12.9 | 0.00 | 0.00 | 0.00 | 91 | 1011.9 |
| 20260510094602 | 15 | 278 | 0.0 | 14.5 | 0.00 | 0.00 | 0.00 | 93 | 1012.2 |
| 20260510093054 | 15 | 22 | 1.6 | 8.0 | 0.00 | 0.00 | 0.00 | 93 | 1012.5 |
| 20260510091531 | 15 | 297 | 3.2 | 4.8 | 0.00 | 0.00 | 0.00 | 92 | 1012.3 |
| 20260510090016 | 15 | 346 | 3.2 | 6.4 | 0.00 | 0.00 | 0.00 | 92 | 1011.8 |
| 20260510084605 | 15 | 342 | 1.6 | 4.8 | 0.00 | 0.00 | 0.00 | 91 | 1011.5 |
| 20260510083051 | 15 | 336 | 0.0 | 0.0 | 0.00 | 0.00 | 0.00 | 90 | 1011.5 |
| 20260510081535 | 15 | 337 | 0.0 | 0.0 | 0.00 | 0.00 | 0.00 | 88 | 1011.1 |
| 20260510080021 | 16 | 336 | 0.0 | 6.4 | 0.00 | 0.00 | 0.00 | 87 | 1010.9 |
| 20260510074508 | 15 | 77 | 0.0 | 4.8 | 0.00 | 0.00 | 0.00 | 86 | 1010.8 |
| 20260510073056 | 16 | 333 | 0.0 | 1.6 | 0.00 | 0.00 | 0.00 | 86 | 1011.4 |
| 20260510071549 | 16 | 303 | 1.6 | 3.2 | 0.00 | 0.00 | 0.00 | 84 | 1011.0 |
| 20260510070032 | 16 | 25 | 0.0 | 1.6 | 0.00 | 0.00 | 0.00 | 85 | 1010.7 |
| 20260510064514 | 16 | 131 | 0.0 | 1.6 | 0.00 | 0.03 | 0.00 | 85 | 1011.1 |
| 20260510063000 | 16 | 131 | 0.0 | 0.0 | 0.00 | 0.03 | 0.00 | 83 | 1010.8 |
| 20260510061552 | 17 | 130 | 0.0 | 0.0 | 0.00 | 0.03 | 0.00 | 78 | 1010.5 |
| 20260510060036 | 17 | 131 | 0.0 | 0.0 | 0.00 | 0.03 | 0.00 | 76 | 1010.5 |
| 20260510054518 | 17 | 131 | 0.0 | 3.2 | 0.00 | 0.03 | 0.00 | 75 | 1010.3 |
| 20260510053017 | 17 | 227 | 0.0 | 0.0 | 0.00 | 0.03 | 0.00 | 76 | 1010.3 |
| 20260510051556 | 17 | 163 | 0.0 | 4.8 | 0.00 | 0.03 | 0.00 | 74 | 1010.3 |
| 20260510050036 | 17 | 335 | 0.0 | 0.0 | 0.00 | 0.03 | 0.00 | 73 | 1009.9 |
| 20260510044512 | 18 | 335 | 0.0 | 0.0 | 0.00 | 0.03 | 0.03 | 71 | 1009.5 |
| 20260510043102 | 18 | 335 | 0.0 | 0.0 | 0.00 | 0.03 | 0.03 | 69 | 1009.4 |
| 20260510041533 | 18 | 312 | 0.0 | 3.2 | 0.00 | 0.03 | 0.03 | 68 | 1009.4 |
| 20260510040026 | 18 | 309 | 0.0 | 4.8 | 0.00 | 0.03 | 0.03 | 65 | 1009.3 |
| 20260510034557 | 19 | 297 | 0.0 | 6.4 | 0.00 | 1.09 | 0.03 | 63 | 1009.5 |
| 20260510033038 | 19 | 347 | 1.6 | 9.7 | 0.00 | 1.09 | 0.03 | 62 | 1009.0 |
| 20260510031523 | 20 | 254 | 6.4 | 12.9 | 0.00 | 1.09 | 0.03 | 60 | 1008.4 |
| 20260510030001 | 20 | 242 | 4.8 | 8.0 | 0.00 | 1.09 | 0.03 | 59 | 1008.1 |
| 20260510024548 | 20 | 261 | 4.8 | 8.0 | 0.00 | 1.98 | 0.03 | 60 | 1008.0 |
| 20260510023024 | 20 | 248 | 3.2 | 8.0 | 0.00 | 1.98 | 0.03 | 58 | 1007.8 |
| 20260510021520 | 20 | 235 | 3.2 | 8.0 | 0.00 | 1.98 | 0.03 | 56 | 1007.7 |
| 20260510020050 | 20 | 259 | 1.6 | 6.4 | 0.00 | 1.98 | 0.03 | 54 | 1007.3 |
| 20260510014534 | 20 | 233 | 1.6 | 4.8 | 0.00 | 2.06 | 0.03 | 54 | 1007.1 |
| 20260510013022 | 21 | 242 | 0.0 | 1.6 | 0.00 | 2.06 | 0.03 | 52 | 1006.8 |
| 20260510011556 | 22 | 232 | 0.0 | 0.0 | 0.00 | 2.06 | 0.03 | 50 | 1006.8 |
| 20260510010036 | 22 | 221 | 0.0 | 0.0 | 0.00 | 2.06 | 0.03 | 49 | 1006.7 |
| 20260510004525 | 23 | 171 | 0.0 | 3.2 | 0.00 | 2.11 | 0.03 | 46 | 1006.5 |
| 20260510003001 | 24 | 221 | 1.6 | 4.8 | 0.00 | 2.11 | 0.03 | 43 | 1006.6 |
| 20260510001547 | 25 | 271 | 1.6 | 6.4 | 0.00 | 2.11 | 0.03 | 39 | 1006.4 |
| 20260510000042 | 25 | 280 | 1.6 | 4.8 | 0.00 | 2.11 | 0.03 | 40 | 1006.4 |
| 20260509234512 | 26 | 280 | 0.0 | 4.8 | 0.00 | 2.31 | 0.03 | 40 | 1006.3 |
| 20260509233057 | 27 | 300 | 0.0 | 4.8 | 0.00 | 2.31 | 0.03 | 38 | 1006.4 |
| 20260509231546 | 27 | 301 | 1.6 | 11.3 | 0.00 | 2.31 | 0.03 | 39 | 1006.4 |
| 20260509230028 | 27 | 342 | 1.6 | 4.8 | 0.00 | 2.31 | 0.03 | 37 | 1006.4 |
| 20260509224510 | 26 | 302 | 3.2 | 16.1 | 0.00 | 2.31 | 0.03 | 35 | 1006.3 |
| 20260509223101 | 27 | 285 | 3.2 | 14.5 | 0.00 | 2.31 | 0.03 | 36 | 1006.3 |
| 20260509221539 | 27 | 257 | 1.6 | 8.0 | 0.00 | 2.31 | 0.03 | 37 | 1006.3 |
| 20260509220022 | 27 | 271 | 4.8 | 11.3 | 0.00 | 2.31 | 0.03 | 37 | 1006.3 |
| 20260509214504 | 26 | 322 | 3.2 | 11.3 | 0.00 | 2.31 | 0.03 | 41 | 1006.4 |
| 20260509213049 | 26 | 294 | 4.8 | 16.1 | 0.00 | 2.31 | 0.03 | 37 | 1006.4 |
| 20260509211530 | 27 | 316 | 1.6 | 12.9 | 0.00 | 2.31 | 0.03 | 37 | 1006.4 |
| 20260509210017 | 26 | 199 | 3.2 | 14.5 | 0.00 | 2.31 | 0.03 | 39 | 1006.6 |
| 20260509204601 | 26 | 307 | 4.8 | 9.7 | 0.00 | 2.31 | 0.03 | 38 | 1006.8 |
| 20260509203050 | 26 | 345 | 1.6 | 12.9 | 0.00 | 2.31 | 0.03 | 39 | 1006.9 |
| 20260509201524 | 26 | 300 | 3.2 | 12.9 | 0.00 | 2.31 | 0.03 | 39 | 1007.0 |
| 20260509200009 | 26 | 219 | 3.2 | 19.3 | 0.00 | 2.31 | 0.03 | 42 | 1007.1 |
| 20260509194554 | 26 | 273 | 3.2 | 17.7 | 0.00 | 2.31 | 0.03 | 44 | 1007.2 |
| 20260509193038 | 26 | 296 | 3.2 | 20.9 | 0.00 | 2.31 | 0.03 | 42 | 1007.2 |
| 20260509191537 | 26 | 274 | 6.4 | 19.3 | 0.00 | 2.31 | 0.03 | 44 | 1007.3 |